Weather History for Ionia, MI

Change the Weather History Date:

Monday, November 25, 2013

  Actual Average (KGRR) Record (KGRR)
Temperature  
Mean Temperature 26 °F 36 °F  
Max Temperature 31 °F 43 °F 65 °F (1908)
Min Temperature 21 °F 30 °F -10 °F (1950)
Degree Days  
Heating Degree Days 39 29  
Month to date heating degree days 596  
Since 1 July heating degree days 1188  
Cooling Degree Days 0 0  
Month to date cooling degree days 0  
Year to date cooling degree days 699  
Moisture  
Dew Point 14 °F    
Average Humidity 62    
Maximum Humidity 95    
Minimum Humidity 34    
Precipitation  
Precipitation 0.00 in 0.11 in 1.39 in (1979)
Month to date precipitation 2.98  
Year to date precipitation 35.24  
Snow  
Snow 0.00 in 0.40 in 3.60 in (1950)
Month to date snowfall 4.9  
Since 1 July snowfall 5.4  
Since 1 September snowfall 5.4  
Snow Depth -    
Sea Level Pressure  
Sea Level Pressure 30.12 in    
Wind  
Wind Speed 16 mph (SW)    
Max Wind Speed 26 mph    
Max Gust Speed 38 mph    
Visibility 8 miles    
Events Snow    
T = Trace of Precipitation, MM = Missing Value Source: NWS Daily Summary

Daily Weather History Graph

Daily Weather History Graph

Search for Another Location

Airport:

Trip Planner

Search our weather history database for the weather conditions in past years. The results will help you decide how hot, cold, wet, or windy it might be!

Date:

Astronomy

Nov. 25, 2013 Rise Set
Actual Time 7:45 AM EST 5:09 PM EST
Civil Twilight 7:13 AM EST 5:40 PM EST
Nautical Twilight 6:38 AM EST 6:15 PM EST
Astronomical Twilight 6:04 AM EST 6:49 PM EST
Moon No Moon Rise 12:55 PM EST (11/25)
Length of Visible Light 10h 26m
Length of Day
9h 24m
Waning Gibbous, 51% of the Moon is Illuminated
Nov 25
Waning Gibbous
Nov 25
Last Quarter
Dec 2
New
Dec 9
First Quarter
Dec 17
Full

Hourly Weather History & Observations

Time (EST) Temp. Windchill Dew Point Humidity Pressure Visibility Wind Dir Wind Speed Gust Speed Precip Events Conditions
12:14 AM 22.1 °F 8.0 °F 4.5 °F 47% 30.32 in 10.0 mi SSW 17.3 mph 20.7 mph N/A   Clear
12:34 AM 22.1 °F 8.5 °F 4.5 °F 47% 30.31 in 10.0 mi SW 16.1 mph - N/A   Clear
12:54 AM 22.1 °F 9.5 °F 4.6 °F 47% 30.30 in 10.0 mi SW 13.8 mph 18.4 mph N/A   Clear
1:14 AM 22.1 °F 10.6 °F 4.1 °F 46% 30.29 in 10.0 mi SW 11.5 mph 23.0 mph N/A   Clear
1:34 AM 21.9 °F 9.2 °F 3.9 °F 46% 30.30 in 10.0 mi SSW 13.8 mph - N/A   Clear
1:54 AM 21.9 °F 9.2 °F 3.6 °F 45% 30.30 in 10.0 mi SW 13.8 mph - N/A   Clear
2:14 AM 22.1 °F 9.5 °F 1.0 °F 40% 30.29 in 10.0 mi SW 13.8 mph - N/A   Clear
2:34 AM 22.1 °F 8.5 °F 1.2 °F 40% 30.28 in 10.0 mi SW 16.1 mph 24.2 mph N/A   Clear
2:54 AM 22.8 °F 9.9 °F -0.0 °F 37% 30.28 in 10.0 mi SW 15.0 mph 23.0 mph N/A   Clear
3:14 AM 22.8 °F 8.9 °F -0.2 °F 37% 30.27 in 10.0 mi SW 17.3 mph 24.2 mph N/A   Clear
3:34 AM 23.0 °F 8.7 °F -0.9 °F 35% 30.26 in 10.0 mi SW 18.4 mph 28.8 mph N/A   Clear
3:54 AM 22.8 °F 8.5 °F -0.4 °F 36% 30.25 in 10.0 mi SW 18.4 mph 25.3 mph N/A   Clear
4:14 AM 22.6 °F 9.2 °F -0.2 °F 37% 30.25 in 10.0 mi SW 16.1 mph 20.7 mph N/A   Clear
4:34 AM 22.8 °F 9.4 °F -0.4 °F 36% 30.23 in 10.0 mi SW 16.1 mph 21.9 mph N/A   Clear
4:54 AM 23.0 °F 9.2 °F -0.0 °F 37% 30.22 in 10.0 mi SSW 17.3 mph 24.2 mph N/A   Clear
5:14 AM 22.3 °F 9.2 °F 0.3 °F 39% 30.21 in 10.0 mi SW 15.0 mph 19.6 mph N/A   Clear
5:34 AM 22.8 °F 10.4 °F -2.0 °F 34% 30.20 in 10.0 mi SSW 13.8 mph 24.2 mph N/A   Clear
5:54 AM 22.5 °F 9.4 °F -1.3 °F 36% 30.20 in 10.0 mi SW 15.0 mph 21.9 mph N/A   Clear
6:14 AM 22.6 °F 10.1 °F -1.5 °F 35% 30.19 in 10.0 mi SSW 13.8 mph 23.0 mph N/A   Clear
6:34 AM 22.8 °F 9.9 °F -0.9 °F 36% 30.18 in 10.0 mi SSW 15.0 mph 26.5 mph N/A   Clear
6:54 AM 23.5 °F 9.9 °F -0.4 °F 35% 30.17 in 10.0 mi SSW 17.3 mph 24.2 mph N/A   Clear
7:14 AM 23.9 °F 10.8 °F 1.0 °F 37% 30.17 in 10.0 mi SW 16.1 mph 27.6 mph N/A   Clear
7:34 AM 24.3 °F 10.4 °F 2.1 °F 39% 30.16 in 10.0 mi SW 18.4 mph 31.1 mph N/A   Clear
7:54 AM 24.3 °F 11.2 °F 4.5 °F 43% 30.15 in 10.0 mi SSW 16.1 mph 23.0 mph N/A   Clear
8:14 AM 24.6 °F 11.3 °F 5.5 °F 44% 30.15 in 10.0 mi SSW 17.3 mph 24.2 mph N/A   Scattered Clouds
8:34 AM 25.2 °F 12.4 °F 6.6 °F 45% 30.14 in 10.0 mi SSW 16.1 mph 24.2 mph N/A   Mostly Cloudy
8:54 AM 25.7 °F 12.3 °F 7.3 °F 46% 30.14 in 10.0 mi SW 18.4 mph 23.0 mph N/A   Overcast
9:14 AM 26.4 °F 14.0 °F 7.2 °F 44% 30.14 in 10.0 mi SW 16.1 mph - N/A   Overcast
9:34 AM 27.1 °F 15.4 °F 6.6 °F 42% 30.14 in 10.0 mi SW 15.0 mph 24.2 mph N/A   Overcast
9:54 AM 28.0 °F 15.7 °F 7.2 °F 41% 30.13 in 10.0 mi SW 17.3 mph 23.0 mph N/A   Overcast
10:14 AM 27.5 °F 13.5 °F 11.7 °F 51% 30.13 in 5.0 mi SW 21.9 mph 28.8 mph N/A Snow Light Snow
10:34 AM 26.4 °F 11.2 °F 16.7 °F 67% 30.12 in 2.5 mi SW 25.3 mph 35.7 mph N/A Snow Light Snow
10:54 AM 24.6 °F 11.7 °F 20.3 °F 84% 30.13 in 0.8 mi SW 16.1 mph 27.6 mph N/A Snow Light Snow
11:14 AM 25.7 °F 12.3 °F 21.6 °F 84% 30.12 in 4.0 mi SW 18.4 mph 26.5 mph N/A Snow Light Snow
11:34 AM 28.4 °F 16.6 °F 18.0 °F 65% 30.10 in 7.0 mi SW 16.1 mph 24.2 mph N/A   Mostly Cloudy
11:54 AM 29.8 °F 18.9 °F 15.8 °F 56% 30.08 in 10.0 mi SW 15.0 mph 27.6 mph N/A   Mostly Cloudy
12:14 PM 30.4 °F 17.7 °F 14.9 °F 53% 30.07 in 10.0 mi SW 20.7 mph 27.6 mph N/A   Overcast
12:34 PM 30.9 °F 18.4 °F 13.8 °F 49% 30.04 in 10.0 mi SW 20.7 mph 28.8 mph N/A   Mostly Cloudy
12:54 PM 31.6 °F 19.0 °F 14.0 °F 48% 30.04 in 10.0 mi SW 21.9 mph 28.8 mph N/A   Mostly Cloudy
1:14 PM 31.5 °F 18.8 °F 14.5 °F 50% 30.04 in 10.0 mi SW 21.9 mph 32.2 mph N/A   Scattered Clouds
1:34 PM 31.6 °F 17.9 °F 15.4 °F 51% 30.03 in 10.0 mi SW 26.5 mph 36.8 mph N/A   Mostly Cloudy
1:54 PM 31.3 °F 18.9 °F 17.1 °F 56% 30.02 in 10.0 mi SW 20.7 mph 28.8 mph N/A   Mostly Cloudy
2:14 PM 31.1 °F 19.7 °F 18.7 °F 60% 30.01 in 10.0 mi WSW 17.3 mph 28.8 mph N/A   Overcast
2:34 PM 30.2 °F 17.4 °F 19.6 °F 65% 30.00 in 5.0 mi WSW 20.7 mph 29.9 mph N/A   Haze
2:54 PM 29.7 °F 17.1 °F 21.2 °F 71% 30.01 in 5.0 mi SW 19.6 mph 28.8 mph N/A Snow Light Snow
3:14 PM 30.2 °F 17.4 °F 21.0 °F 69% 30.02 in 10.0 mi SW 20.7 mph 38.0 mph N/A   Mostly Cloudy
3:34 PM 29.1 °F 16.0 °F 23.0 °F 78% 30.01 in 4.0 mi SW 20.7 mph 27.6 mph N/A Snow Light Snow
3:54 PM 29.3 °F 17.0 °F 22.8 °F 77% 30.02 in 10.0 mi SW 18.4 mph - N/A   Overcast
4:14 PM 29.3 °F 17.3 °F 22.6 °F 76% 30.02 in 10.0 mi SW 17.3 mph 26.5 mph N/A   Overcast
4:34 PM 29.3 °F 17.7 °F 23.0 °F 77% 30.03 in 10.0 mi SW 16.1 mph 26.5 mph N/A   Overcast
4:54 PM 29.7 °F 17.8 °F 23.4 °F 77% 30.02 in 10.0 mi SW 17.3 mph 25.3 mph N/A   Overcast
5:14 PM 29.3 °F 17.3 °F 23.4 °F 78% 30.02 in 10.0 mi SW 17.3 mph 26.5 mph N/A   Overcast
5:34 PM 29.5 °F 17.2 °F 23.7 °F 79% 30.02 in 10.0 mi SW 18.4 mph 24.2 mph N/A   Overcast
5:54 PM 29.8 °F 17.3 °F 23.9 °F 79% 30.02 in 10.0 mi SW 19.6 mph 24.2 mph N/A   Overcast
6:14 PM 29.8 °F 18.0 °F 24.4 °F 80% 30.03 in 10.0 mi SW 17.3 mph 25.3 mph N/A   Overcast
6:34 PM 29.8 °F 17.7 °F 24.8 °F 81% 30.02 in 10.0 mi SW 18.4 mph 25.3 mph N/A   Overcast
6:54 PM 30.2 °F 18.5 °F 25.3 °F 82% 30.03 in 10.0 mi SW 17.3 mph 20.7 mph N/A   Overcast
7:14 PM 30.2 °F 18.5 °F 25.5 °F 83% 30.04 in 10.0 mi SW 17.3 mph 23.0 mph N/A   Overcast
7:34 PM 30.2 °F 18.5 °F 25.7 °F 83% 30.04 in 10.0 mi SW 17.3 mph 21.9 mph N/A   Overcast
7:54 PM 30.2 °F 19.8 °F 26.4 °F 86% 30.04 in 10.0 mi SW 13.8 mph - N/A   Overcast
8:14 PM 30.2 °F 19.8 °F 27.1 °F 88% 30.03 in 5.0 mi SW 13.8 mph 20.7 mph N/A   Overcast
8:34 PM 30.2 °F 20.8 °F 28.2 °F 92% 30.04 in 3.0 mi SW 11.5 mph - N/A   Overcast
8:54 PM 30.6 °F 21.2 °F 29.1 °F 94% 30.03 in 3.0 mi SW 11.5 mph - N/A Snow Light Snow
9:14 PM 30.6 °F 21.2 °F 29.3 °F 95% 30.03 in 2.5 mi SW 11.5 mph - N/A   Overcast
9:34 PM 30.6 °F 20.2 °F 29.3 °F 95% 30.03 in 3.0 mi SW 13.8 mph - N/A Snow Light Snow
9:54 PM 30.6 °F 20.2 °F 29.3 °F 95% 30.03 in 3.0 mi SW 13.8 mph 17.3 mph N/A   Overcast
10:14 PM 30.7 °F 21.4 °F 29.5 °F 95% 30.04 in 4.0 mi SW 11.5 mph 17.3 mph N/A   Overcast
10:34 PM 30.9 °F 20.7 °F 29.7 °F 95% 30.04 in 4.0 mi SW 13.8 mph - N/A   Overcast
10:54 PM 30.9 °F 21.2 °F 29.7 °F 95% 30.03 in 5.0 mi SW 12.7 mph - N/A   Overcast
11:14 PM 30.9 °F 21.2 °F 29.7 °F 95% 30.03 in 7.0 mi SSW 12.7 mph - N/A   Overcast
11:34 PM 30.7 °F 21.4 °F 29.5 °F 95% 30.03 in 7.0 mi SSW 11.5 mph - N/A   Overcast
11:54 PM 30.9 °F 22.8 °F 29.7 °F 95% 30.03 in 7.0 mi SW 9.2 mph - N/A   Overcast